Location: B?ogocice
(50.2413°N, 20.2361°E)
Time: 23:34:08
(UTC+00:00)

CZ-4C R/B - Pass Details

Date: 15 June 2024
Orbit: 526 x 1467 km, 63.4° (Epoch: 18 July)

Event Time Altitude Azimuth Distance (km) Brightness Sun altitude
Rises 00:58:07 0° 274° (W) 3,080 4.8 -10.3°
Reaches altitude 10° 01:00:35 10° 287° (WNW) 2,289 4.3 -10.1°
Maximum altitude 01:05:07 28° 346° (NNW) 1,604 4.2 -9.7°
Drops below altitude 10° 01:10:39 10° 43° (NE) 2,840 6.6 -9.2°
Sets 01:14:05 0° 54° (NE) 3,974 7.3 -8.9°
